TimeCDT,TemperatureF,Dew PointF,Humidity,Sea Level PressureIn,VisibilityMPH,Wind Direction,Wind SpeedMPH,Gust SpeedMPH,PrecipitationIn,Events,Conditions,WindDirDegrees,DateUTC
12:00 AM,39.2,37.4,93,29.47,10.0,WNW,13.8,-,N/A,,Overcast,290,2013-11-01 05:00:00
12:32 AM,39.2,37.4,93,29.48,10.0,WNW,10.4,-,N/A,,Overcast,290,2013-11-01 05:32:00
12:53 AM,39.9,37.9,93,29.49,10.0,West,10.4,-,N/A,,Overcast,280,2013-11-01 05:53:00
1:05 AM,39.2,37.4,93,29.48,10.0,West,10.4,-,0.00,Rain,Light Rain,280,2013-11-01 06:05:00
1:53 AM,39.9,37.9,93,29.50,10.0,West,11.5,-,0.00,,Overcast,280,2013-11-01 06:53:00
2:53 AM,39.9,37.9,93,29.51,10.0,West,11.5,-,N/A,,Overcast,280,2013-11-01 07:53:00
3:24 AM,39.2,37.4,93,29.52,10.0,West,12.7,-,N/A,,Overcast,280,2013-11-01 08:24:00
3:53 AM,39.9,37.9,93,29.53,10.0,WNW,10.4,-,N/A,,Overcast,290,2013-11-01 08:53:00
4:17 AM,39.2,37.4,93,29.52,10.0,West,10.4,-,N/A,,Overcast,280,2013-11-01 09:17:00
4:53 AM,41.0,37.9,89,29.55,10.0,WNW,12.7,-,N/A,,Overcast,300,2013-11-01 09:53:00
5:51 AM,41.0,37.4,87,29.56,10.0,WNW,12.7,-,N/A,,Overcast,290,2013-11-01 10:51:00
5:53 AM,41.0,37.9,89,29.57,10.0,WNW,12.7,-,N/A,,Overcast,290,2013-11-01 10:53:00
6:45 AM,41.0,37.4,87,29.59,10.0,WNW,12.7,-,N/A,,Overcast,290,2013-11-01 11:45:00
6:53 AM,41.0,37.9,89,29.60,10.0,WNW,12.7,-,N/A,,Overcast,290,2013-11-01 11:53:00
7:53 AM,39.9,37.0,89,29.60,9.0,WNW,9.2,-,N/A,,Scattered Clouds,290,2013-11-01 12:53:00
8:53 AM,41.0,37.9,89,29.63,8.0,West,9.2,-,N/A,,Overcast,280,2013-11-01 13:53:00
9:53 AM,42.1,37.9,85,29.65,9.0,WNW,12.7,-,0.00,,Mostly Cloudy,300,2013-11-01 14:53:00
10:53 AM,43.0,37.0,80,29.66,10.0,WNW,13.8,-,N/A,,Partly Cloudy,300,2013-11-01 15:53:00
11:53 AM,46.9,36.0,66,29.67,10.0,NW,17.3,-,N/A,,Clear,310,2013-11-01 16:53:00
12:53 PM,50.0,36.0,59,29.68,10.0,WNW,16.1,24.2,N/A,,Clear,300,2013-11-01 17:53:00
1:53 PM,50.0,35.1,57,29.68,10.0,West,13.8,21.9,N/A,,Scattered Clouds,280,2013-11-01 18:53:00
2:53 PM,53.1,35.1,50,29.68,10.0,West,12.7,-,N/A,,Partly Cloudy,280,2013-11-01 19:53:00
3:53 PM,53.1,36.0,52,29.70,10.0,NW,13.8,-,N/A,,Partly Cloudy,310,2013-11-01 20:53:00
4:53 PM,53.1,37.9,57,29.71,10.0,WNW,18.4,24.2,N/A,,Overcast,300,2013-11-01 21:53:00
5:53 PM,48.0,37.0,66,29.73,10.0,NW,11.5,-,N/A,,Clear,320,2013-11-01 22:53:00
6:53 PM,45.0,37.0,74,29.76,10.0,WNW,10.4,-,N/A,,Scattered Clouds,300,2013-11-01 23:53:00
7:53 PM,39.9,35.1,83,29.79,10.0,West,9.2,-,N/A,,Clear,280,2013-11-02 00:53:00
8:53 PM,39.0,35.1,86,29.81,10.0,West,10.4,-,N/A,,Clear,280,2013-11-02 01:53:00
9:53 PM,44.1,37.9,79,29.82,10.0,NW,13.8,-,N/A,,Overcast,320,2013-11-02 02:53:00
10:53 PM,41.0,37.0,86,29.85,10.0,NW,13.8,-,N/A,,Clear,320,2013-11-02 03:53:00
11:53 PM,41.0,37.9,89,29.87,10.0,NW,12.7,-,N/A,,Overcast,320,2013-11-02 04:53:00